Location: Unspecified
(0.0000°N, 0.0000°E)
Time: 06:48:21
(UTC+02:00)

Cosmos 1538 Rocket - Visible Passes

Search period start: 31 August 2015 00:00
Search period end: 10 September 2015 00:00
Orbit: 752 x 793 km, 74.0° (Epoch: 30 August)

Date Brightness Start Highest point End Pass type
(mag) Time Alt. Az. Time Alt. Az. Time Alt. Az.
31 Aug 7.2 20:33:57 10° WSW 20:37:30 17° WNW 20:40:46 10° NW visible
01 Sep 4.2 07:23:27 10° N 07:28:43 81° ENE 07:33:57 10° SSE visible
02 Sep 5.4 06:48:11 10° N 06:53:04 40° ENE 06:57:58 10° SSE visible
03 Sep 6.6 06:13:37 10° NNE 06:17:21 21° ENE 06:21:17 10° SE visible
04 Sep 4.3 07:18:43 10° NNW 07:23:43 45° WSW 07:28:39 10° S visible
05 Sep 3.9 06:42:49 10° NNW 06:48:05 90° W 06:53:18 10° SSE visible
06 Sep 5.0 06:07:28 10° N 06:12:26 45° ENE 06:17:25 10° SSE visible
07 Sep 6.2 05:32:45 10° NNE 05:36:44 23° ENE 05:40:52 10° SE visible
07 Sep 5.2 07:14:53 10° NW 07:18:47 20° WSW 07:22:27 10° SSW visible
08 Sep 7.0 04:59:40 10° ENE 05:00:57 11° ENE 05:02:41 10° E visible
08 Sep 4.3 06:40:28 24° NW 06:43:05 39° WSW 06:47:54 10° S visible
09 Sep 4.9 06:09:40 35° S 06:09:40 35° S 06:12:39 10° S visible
